Location: Palomar Mountain Lodge
(33.3110°N, 116.8495°W)
Time: 11:39:33
(UTC-07:00)

Lacrosse 5 rocket - Pass Details

Date: 12 July 2018
Orbit: 461 x 639 km, 57.0° (Epoch: 18 September)

Event Time Altitude Azimuth Distance (km) Brightness Sun altitude
Exits shadow 22:09:38 66° 55° (NE) 591 1.3 -22.5°
Drops below altitude 10° 22:13:19 10° 40° (NE) 1,856 4.1 -23.0°
Sets 22:15:38 0° 40° (NE) 2,788 5.0 -23.3°
